Snowfall_Accumulation
0.0 0.0 0.0 0.0 0.0 0.0 0.0 0.0 3.7 0.0 0.0 0.6 4.0 4.5 0.2 0.0 0.0 0.0 0.3 0.0 0.0 0.3 0.2 1.5 2.7 3.7 3.8 0.2 0.0 1.1 0.6 2.4 5.9 2.3 0.0 0.0 0.0 0.2 0.3 7.9 3.7 3.2 4.3 0.5
0.0 0.0 0.0 0.0 0.0 0.0 0.0 0.0 1.6 0.0 0.0 11.3 3.5 0.0 0.1 0.0 1.2 0.4 0.0 0.2 0.0 0.0 0.2 0.9 0.5 0.0 0.3 0.0 0.3 0.3 0.5 0.7 4.8 4.5 0.2 0.0 0.4 0.0 0.0 0.6 2.2 7.0 7.0 0.7
0.0 0.0 0.0 0.0 0.0 0.0 0.0 0.0 10.2 0.0 0.0 0.0 0.1 0.2 1.3 1.0 0.0 0.0 0.0 0.0 0.0 0.0 0.3 0.0 0.0 0.1 0.1 0.0 0.0 0.0 0.0 0.2 2.0 3.8 1.4 0.6 3.6 0.9 0.0 4.5 9.2 2.3 1.8 0.0
0.0 0.0 0.0 0.0 0.0 0.0 0.0 0.0 2.9 0.0 4.9 0.8 0.1 1.0 1.2 1.9 1.8 0.0 0.0 0.5 0.0 0.3 0.9 0.2 0.2 0.0 0.0 0.3 1.1 1.0 0.8 0.8 0.0 0.7 0.3 0.0 3.1 3.0 2.1 6.0 1.3 2.8 0.0 0.0
0.0 0.0 0.0 0.0 0.0 0.0 0.0 0.9 1.0 0.0 0.0 0.0 0.0 0.0 1.2 1.8 0.0 0.0 0.0 0.0 0.0 0.0 0.5 0.0 0.0 0.0 0.0 0.0 0.0 1.4 0.9 0.8 0.0 2.1 0.0 1.3 3.0 0.3 0.9 0.7 0.5 0.7 0.0 0.0
0.0 0.0 0.0 0.0 0.0 0.0 0.0 0.0 0.0 0.0 0.0 0.0 0.0 0.6 0.4 0.0 0.1 0.0 0.0 0.0 0.0 0.0 0.0 0.0 0.0 0.0 0.0 0.0 0.0 0.1 0.0 0.0 0.5 3.8 0.2 1.5 3.0 0.5 0.0 0.0 0.0 0.0 0.2 0.0
0.0 0.0 0.0 0.0 0.0 0.0 0.0 0.0 0.0 0.3 0.3 0.0 0.2 0.3 0.0 0.0 0.0 0.1 0.0 0.0 0.0 0.0 0.0 0.0 0.0 0.0 0.0 0.0 0.0 0.0 0.0 0.0 0.1 2.0 0.9 4.1 0.0 0.0 0.0 0.0 0.0 0.0 0.0 0.0
0.0 0.0 0.0 0.0 0.0 0.0 0.0 0.0 0.0 0.0 0.2 0.0 0.0 0.1 0.1 0.0 0.0 0.1 0.0 0.0 0.0 0.0 0.0 0.0 0.2 0.3 0.2 0.0 0.0 0.0 0.0 0.0 0.6 1.9 1.2 0.0 0.0 0.0 0.0 0.0 0.0 0.0 0.0 0.0
0.0 0.0 0.0 0.0 0.0 0.0 0.0 0.0 0.0 0.0 0.1 0.0 0.0 0.0 0.0 0.2 0.1 0.1 0.0 0.0 0.0 0.0 0.0 0.8 0.8 1.5 0.0 0.1 0.0 0.0 0.0 0.0 0.9 1.0 1.1 0.0 0.0 0.0 0.0 0.0 0.0 0.0 0.0 0.0
0.0 0.0 0.0 0.0 0.0 0.0 0.0 0.0 0.0 0.0 0.3 0.0 0.0 0.0 0.1 0.0 0.1 0.2 0.0 0.0 0.0 0.0 0.6 0.9 0.0 0.1 0.0 0.1 0.0 0.1 0.4 0.5 1.3 0.8 1.3 0.0 0.0 0.0 0.0 0.1 0.0 0.0 0.0 0.0
0.0 0.0 0.0 0.0 0.0 0.0 0.0 0.0 0.0 0.0 0.1 0.0 0.0 0.0 0.0 0.0 0.1 0.3 0.1 0.0 0.0 0.0 1.4 0.6 0.0 0.0 0.0 0.0 0.0 0.0 0.0 0.1 0.1 0.1 0.3 0.0 0.0 0.0 0.0 0.0 0.0 0.0 0.0 0.0
0.0 0.0 0.0 0.0 0.0 0.0 0.0 0.0 0.0 0.0 0.0 0.0 0.0 0.0 0.0 0.0 0.0 0.0 0.0 0.1 0.8 0.4 0.4 0.0 0.0 0.0 0.0 0.0 0.0 0.0 0.0 0.0 0.0 0.0 0.0 0.0 0.0 0.0 0.0 0.0 0.0 0.0 0.0 0.0
0.0 0.0 0.0 0.0 0.0 0.0 0.0 0.0 0.0 0.0 0.0 0.0 0.0 0.0 0.0 0.0 0.0 0.0 0.0 0.0 0.0 0.6 0.2 0.3 0.0 0.0 0.0 0.0 0.0 0.0 0.0 0.0 0.0 0.0 0.0 0.0 0.0 0.0 0.0 0.0 0.0 0.0 0.0 0.0
0.0 0.0 0.0 0.0 0.0 0.0 0.0 0.0 0.0 0.0 0.0 0.8 0.0 0.0 0.0 0.0 0.0 0.0 0.0 0.0 0.0 0.0 0.0 0.1 0.1 0.0 0.0 0.0 0.0 0.0 0.0 0.0 0.0 0.0 0.0 0.0 0.0 0.0 0.0 0.0 0.0 0.0 0.0 0.0
0.0 0.0 0.0 0.0 0.0 0.0 0.0 0.0 0.0 0.0 0.0 1.6 0.0 0.0 0.0 0.0 0.0 0.0 0.0 0.0 0.0 0.1 0.0 0.0 0.0 0.0 0.0 0.0 0.0 0.0 0.0 0.0 0.0 0.0 0.0 0.0 0.0 0.0 0.0 0.0 0.0 0.0 0.0 0.0
0.0 0.0 0.0 0.0 0.0 0.0 0.0 0.1 0.0 0.0 0.0 1.9 0.9 0.0 0.0 0.0 0.0 0.0 0.0 0.0 0.0 0.0 0.0 0.0 0.0 0.0 0.0 0.0 0.0 0.0 0.0 0.0 0.0 0.0 0.0 0.0 0.0 0.0 0.0 0.0 0.0 0.0 0.0 0.0
0.0 0.0 0.0 0.0 0.0 0.0 0.4 0.2 0.0 0.0 0.0 1.3 1.0 0.2 0.0 0.0 0.0 0.0 0.0 0.0 0.0 0.0 0.1 0.0 0.0 0.0 0.0 0.0 0.0 0.0 0.0 0.0 0.0 0.0 0.0 0.0 0.0 0.0 0.0 0.0 0.0 0.0 0.2 0.1
0.0 0.0 0.0 0.0 0.0 0.0 0.0 0.0 0.0 0.0 0.0 0.5 1.9 0.5 0.1 0.0 0.2 0.1 0.0 0.0 0.0 0.0 0.0 0.0 0.0 0.0 0.0 1.0 0.0 0.0 0.0 0.0 0.0 0.0 0.0 0.0 0.0 0.0 0.0 0.0 0.6 0.8 0.3 0.0
0.0 0.0 0.0 0.0 0.0 0.0 0.0 0.0 0.0 0.0 0.0 3.0 1.5 1.9 2.2 0.0 0.0 0.0 0.0 0.0 1.3 0.0 0.1 0.0 0.0 0.0 0.7 0.0 0.0 0.0 0.0 0.0 0.0 0.0 0.0 0.0 0.0 0.0 0.0 1.1 0.8 0.2 0.0 0.0
0.0 0.0 0.0 0.1 0.0 0.0 0.0 0.0 1.6 2.2 1.0 0.5 0.6 0.0 1.8 0.0 0.7 0.2 1.2 0.0 1.2 3.7 0.0 0.0 0.4 0.4 0.0 0.0 0.0 0.0 0.0 0.0 0.0 0.0 0.0 0.0 0.0 0.0 0.0 0.0 0.0 0.0 0.0 0.0
0.0 0.0 0.8 0.0 0.0 0.0 0.4 3.9 3.2 1.1 1.2 0.5 0.5 0.5 1.8 0.0 2.8 3.1 0.0 4.3 2.8 3.9 2.0 3.3 3.0 1.8 0.5 0.0 0.0 0.0 0.0 0.0 0.0 0.0 0.0 0.0 0.0 0.0 0.0 0.0 0.0 0.0 0.0 0.0
0.0 0.0 0.0 0.0 0.2 2.3 5.0 3.9 1.9 1.9 1.1 0.8 2.0 1.1 0.6 0.4 0.0 3.0 0.7 4.2 4.8 3.4 0.3 3.7 2.9 0.8 0.0 0.0 0.0 0.0 0.0 0.0 0.0 0.0 0.0 0.0 0.0 0.0 0.0 0.0 0.0 0.0 0.0 0.0
0.0 0.0 1.0 1.2 2.5 4.8 3.5 5.0 4.8 4.3 1.9 1.9 1.5 2.3 0.3 0.0 0.2 1.7 3.4 6.1 3.6 0.4 2.8 0.9 0.3 0.1 0.0 0.0 0.0 0.1 0.0 0.0 0.0 0.0 0.0 0.0 0.0 0.0 0.0 0.0 0.0 0.0 0.0 0.0
0.0 15.8 12.3 2.6 4.2 1.3 2.5 2.9 3.0 2.2 3.2 2.9 2.4 3.9 2.3 0.5 3.4 1.7 3.2 1.5 2.6 3.0 1.2 0.3 0.3 0.0 0.0 0.1 0.2 0.2 0.5 1.3 1.4 0.8 0.4 0.4 0.3 0.2 0.1 0.1 0.1 0.0 0.1 0.0
14.6 7.7 4.8 1.1 0.2 0.3 1.1 1.1 0.9 1.3 1.6 2.3 2.6 3.5 2.8 4.0 5.2 3.1 2.1 3.9 1.9 0.4 0.4 0.8 1.0 0.8 0.4 0.9 1.1 1.0 1.0 2.2 3.4 3.8 3.6 3.4 2.8 2.0 1.6 0.8 0.5 0.4 0.1 0.1
11.8 7.0 2.1 0.4 0.1 0.1 0.5 1.3 1.3 0.9 1.8 0.9 1.7 3.1 4.1 4.4 4.5 4.7 4.2 4.6 3.3 2.7 2.7 2.8 2.1 2.3 2.0 1.6 0.8 0.4 0.2 0.0 0.2 0.3 0.3 0.7 0.4 0.9 1.6 1.0 1.1 1.3 1.2 1.2
10.9 3.8 0.1 0.0 0.0 0.5 0.6 0.6 1.1 0.4 1.0 2.4 2.1 2.6 3.2 3.0 5.1 5.9 5.5 7.2 4.4 1.9 0.7 1.4 1.8 2.4 2.9 3.1 1.7 1.2 0.3 0.0 0.0 0.0 0.0 0.0 0.0 0.0 0.0 0.0 0.0 0.2 1.2 1.5